Location: Unspecified
(0.0000°N, 0.0000°E)
Time: 06:37:37
(UTC+00:00)

Envisat - Pass Details

Date: 17 January 2018
Orbit: 764 x 766 km, 98.2° (Epoch: 20 January)

Event Time Altitude Azimuth Distance (km) Brightness Sun altitude
Rises 20:17:12 0° 177° (S) 3,231 6.5 -29.5°
Reaches altitude 10° 20:19:33 10° 181° (S) 2,302 5.7 -30.0°
Maximum altitude 20:24:29 53° 258° (WSW) 931 3.6 -31.2°
Enters shadow 20:24:30 53° 258° (WSW) 931 3.6 -31.2°
